User: anonymous   Login
Location: San Francisco
(37.7750°N, 122.4180°W)
Time: 06:54:20
(UTC-07:00)
Language:

GP-B - Orbit

View from above orbital plane
View from above orbital plane
View from above satellite
View from above satellite

Ground track
Ground track

The orbit data is extracted from the following two-line orbital elements,

1 28230U 04014A   16181.87736812  .00000134  00000-0  16206-4 0  9990
2 28230  89.8618 128.4653 0002586  72.8561 287.2945 14.78436247657041
Epoch (UTC): 29 June 2016 21:03:24
Eccentricity: 0.0002586
inclination: 89.8618°
perigee height: 632 km
apogee height: 636 km
right ascension of ascending node: 128.4653°
argument of perigee: 72.8561°
revolutions per day: 14.78436247
mean anomaly at epoch: 287.2945°
orbit number at epoch: 65704

The dashed part of the orbit path shows where the satellite is in the earth's shadow,  

DLR